Regional Weather Roundup
Issued by NWS

Home | Current Version | Previous Version | Graphics & Text | Print | Product List | Glossary On
Versions: 1 2 3 4 5 6 7 8 9 10 11 12 13 14 15 16 17 18 19 20 21 22 23 24 25 26 27 28 29 30 31 32 33 34 35 36 37 38 39 40 41 42 43 44 45 46 47 48 49 50
000
ASUS45 KABQ 311001
RWRNM
NEW MEXICO REGIONAL WEATHER ROUNDUP
NATIONAL WEATHER SERVICE ALBUQUERQUE NM
400 AM MDT TUE MAY 31 2016

NOTE: "FAIR" MEANS FEW OR NO CLOUDS BELOW 12,000 FEET AGL WITH NO
       SIGNIFICANT WEATHER OR OBSTRUCTIONS TO VISION.

      THIS PRODUCT IS RELEASED AS TWO VERSIONS.  ONE VERSION NEAR
      THE TOP OF THE HOUR CONTAINING PRELIMINARY DATA FROM ALBUQUERQUE
      AND OTHER STATIONS.  A FINAL VERSION WITH ADDITIONAL DATA IS
      ISSUED ABOUT 10 MINUTES AFTER THE HOUR.

NMZ501-503-504-510>518-311100-
NORTHWEST PLATEAU/NORTHCENTRAL MOUNTAINS

CITY           SKY/WX    TMP DP  RH WIND       PRES   REMARKS
FARMINGTON     FAIR      47  21  35 N7        29.99S
SANTA FE       FAIR      52  27  38 NE6       30.03S
TAOS           FAIR      43  21  42 NE5       30.12R
ANGEL FIRE     FAIR      32  26  77 SE3       30.20S

$$
NMZ402-403-502-505>509-311100-
WESTCENTRAL MOUNTAINS/SOUTHWEST MOUNTAINS

CITY           SKY/WX    TMP DP  RH WIND       PRES   REMARKS
GALLUP         FAIR      41  24  51 CALM      30.07S
GRANTS         FAIR      47  23  39 NE5       30.07S
SILVER CITY      N/A     54  41  62 N7        30.05R

$$
NMZ407-409-411-412-311100-
SOUTHERN DESERTS

CITY           SKY/WX    TMP DP  RH WIND       PRES   REMARKS
LORDSBURG      FAIR      55  48  76 SE7       29.96S
DEMING         FAIR      57  53  86 NW9       29.98R
HOLLOMAN AFB   FAIR      63  50  63 S14       29.94F
ALAMOGORDO     FAIR      66  45  45 S10       29.96F
T OR C         FAIR      61  49  64 SW3       29.97S

$$
NMZ519>523-311100-
CENTRAL VALLEYS/CENTRAL HIGHLANDS

CITY           SKY/WX    TMP DP  RH WIND       PRES   REMARKS
ALBUQUERQUE    FAIR      66  35  31 SW8       30.00R
DOUBLE EAGLE   FAIR      55  32  42 S6        30.02S
CLINES CORNERS FAIR      55  34  45 SW8       30.06R
BELEN          FAIR      60  42  51 S6        29.98S
SOCORRO        NOT AVBL

$$
NMZ524>526-539-540-311100-
SOUTHCENTRAL MOUNTAINS

CITY           SKY/WX    TMP DP  RH WIND       PRES   REMARKS
RUIDOSO        NOT AVBL

$$
NMZ527>531-311100-
NORTHEAST HIGHLANDS/NORTHEAST PLAINS

CITY           SKY/WX    TMP DP  RH WIND       PRES   REMARKS
LAS VEGAS      FAIR      51  32  48 N8        30.09R
RATON          FAIR      51  37  58 E9        30.08R
CLAYTON        FAIR      51  45  79 NW6       30.02S

$$
NMZ532>537-311100-
EASTCENTRAL PLAINS

CITY           SKY/WX    TMP DP  RH WIND       PRES   REMARKS
TUCUMCARI      FAIR      62  48  60 S9        29.93F
CANNON AFB     FAIR      59  54  82 SW10      29.97F
CLOVIS AIRPORT FAIR      55  48  76 SW7       29.97F

$$
NMZ028-029-538-311100-
SOUTHEAST PLAINS

CITY           SKY/WX    TMP DP  RH WIND       PRES   REMARKS
ROSWELL        FAIR      60  52  74 S5        29.94S
ARTESIA        FAIR      61  59  94 CALM      29.94R
CARLSBAD       FAIR      61  59  93 N5        29.91F
HOBBS          FAIR      55  55 100 CALM      29.96F


$$




USA.gov is the U.S. government's official web portal to all federal, state and local government web resources and services.